Location: Holkham
(52.9500°N, 0.8167°E)
Time: 20:36:24
(UTC+00:00)

Cosmos 2221 - Pass Details

Date: 19 May 2025
Orbit: 572 x 593 km, 82.5° (Epoch: 21 June)

Event Time Altitude Azimuth Distance (km) Brightness Sun altitude
Exits shadow 21:37:47 15° 168° (SSE) 1,594 4.1 -11.4°
Maximum altitude 21:41:04 52° 96° (E) 725 2.7 -11.7°
Drops below altitude 10° 21:45:08 10° 19° (NNE) 1,898 5.6 -12.0°
Sets 21:47:22 0° 15° (NNE) 2,799 6.7 -12.1°
